THOR ABLESTAR DEB, 323

Orbit data source: Space-Track

THOR ABLESTAR DEB, 323 is space debris in LEO originally from a launch on Thu, 29 Jun 1961 UTC launched from the Air Force Eastern Test Range (AFETR). Debris objects in space refer to the collection of defunct objects orbiting the Earth. Examples of debris include non-operational satellites, rocket bodies, and fragments generated from explosions, collisions, or faulty payload assembly.

Loading next visibility...
THOR ABLESTAR DEB details
Identifier
323, 1961-015CZ
Orbit
LEO
Last TLE update15 hours ago
Origin
Flag of USUSAF SSD (US)
ManufacturerUnknown
MissionSpacecraft
Bus & MotorUnknown
MassUnknown
Launch date (UTC)
1961-06-29 (64 years ago)
Launch vehicleUnknown
Launch site
Air Force Eastern Test Range (AFETR)
Object type
Payload
Rocket body
Debris
Shape & HBRUnknown
Radar Cross SectionSmall (<0.1 m²)

Expand to show TLE details & history

TLE from 15 hours ago
0 THOR ABLESTAR DEB
1 00323U 61015CZ  25039.94705854  .00000971  00000-0  52368-3 0  9996
2 00323  66.8389 273.5333 0071205  89.3567 271.5683 14.15623861258632
Epoch: 2025-02-08T22:43Z
Definitive object data (Epoch: 2025-02-08T22:43:45.857Z)
Latitude-0.00005°
Longitude153.30457°
Altitude841.253 km
Speed7.433 km/s
True Right ascension18h 14m 07s
True Declination0° 00' 00"
Sunlit
Object was in daylight at TLE epoch
Visualization TLE readout
Latitude45.80151°
Longitude177.61538°
Altitude805.571 km
Speed7.476 km/s
Apparent Right ascension00h 06m 18s
Apparent Declination14° 14' 55"
Sunlit
Object is in daylight
Visualization observer readout
Local Sidereal Time16:32:56
Azimuth63.94° ENE
Elevation-7.851°
Doppler factor1
Orbital elements
Apogee altitude889.947 km
Perigee altitude787.174 km
Semi-major axis7,216.697 km
Eccentricity0.0071205
Inclination66.8389°
RAAN273.5333°
Arg. of periapsis89.3567°
True anomaly270.75249°
Mean anomaly271.5683°
Eccentric anomaly271.16041°
Mean motion3.54026 °/min
BSTAR0.00052368
Orbital period101.69 mins
Loading maneuver chart data...

THOR ABLESTAR DEB Visibility forecast

Observer location: undefined°, undefined

Span
Click to sort rows by Start time (UTC) header in descending order
Start Az.
Max El. time (UTC)
Max El. Az.
Max El.
End time (UTC)
End Az.
6 mins2025-02-09 15:48:42.900Z145.429° SSE2025-02-09 15:51:42.900Z109.181° ESE18.288°2025-02-09 15:54:42.900Z70.445° E
9 mins2025-02-09 17:31:42.900Z227.246° WSW2025-02-09 17:35:42.900Z290.361° WNW39.547°2025-02-09 17:40:42.900Z19.507° NNE
6 mins2025-02-10 00:41:42.900Z7.182° NNE2025-02-10 00:44:42.900Z44.75° NE17.781°2025-02-10 00:47:42.900Z82.349° E
9 mins2025-02-10 02:25:42.900Z325.152° NNW2025-02-10 02:29:42.900Z250.774° W43.575°2025-02-10 02:34:42.900Z161.245° S
|